Regional Weather Roundup
Issued by NWS Memphis, TN

Home | Current Version | Previous Version | Text Only | Print | Product List | Glossary On
Versions: 1 2 3 4 5 6 7 8 9 10 11 12 13 14 15 16 17 18 19 20 21 22 23 24 25 26 27 28 29 30 31 32 33 34 35 36 37 38 39 40 41 42 43 44 45 46 47 48 49 50
499
ASUS44 KMEG 202210
RWRMEG
MEMPHIS CWA HOURLY WEATHER ROUNDUP
NATIONAL WEATHER SERVICE MEMPHIS TN
400 PM CST FRI JAN 20 2017

...WEST TENNESSEE...

CITY           SKY/WX    TMP DP  RH WIND       PRES   REMARKS
MEMPHIS INTL   PTSUNNY   67  57  70 S15       29.67S
NWS MEMPHIS      N/A     67 N/A N/A MISG        N/A
JACKSON        MOSUNNY   66  55  67 S8        29.69R
BOLIVAR        MOSUNNY   66  55  68 S9G16     29.68S
DYERSBURG      MOSUNNY   64  54  68 S10G17    29.66S
UNION CITY     MOSUNNY   61  61 100 S10       29.66R
PARIS          PTSUNNY   61  54  77 CALM      29.69R
HUNTINGDON     PTSUNNY   64  55  72 S12       29.68R


...EASTERN ARKANSAS...

CITY           SKY/WX    TMP DP  RH WIND       PRES   REMARKS
JONESBORO      CLOUDY    63  53  70 S17       29.63R
WEST MEMPHIS   SUNNY     65  57  75 S14       29.65S
BATESVILLE     MOSUNNY   66  52  59 S12       29.60F
NEWPORT        CLOUDY    65  55  70 S17       29.62R
WALNUT RIDGE   MOSUNNY   63  54  72 S20       29.61R
BLYTHEVILLE    MOSUNNY   64  54  69 SW16G23   29.66R
SEARCY         MOSUNNY   67  54  63 S13       29.62F
STUTTGART      MOSUNNY   68  52  56 S15G22    29.65S
PINE BLUFF     MOSUNNY   69  50  50 SW13      29.65R
MONTICELLO     SUNNY     73  47  39 SW14      29.67R


...NORTH MISSISSIPPI...

CITY           SKY/WX    TMP DP  RH WIND       PRES   REMARKS
TUPELO         SUNNY     71  54  54 S14       29.71S
OXFORD         SUNNY     68  54  60 S9G16     29.71S
BATESVILLE     SUNNY     69  56  62 S12       29.70R
OLIVE BRANCH   PTSUNNY  N/A N/A N/A S15G25    29.67S
TUNICA         MOSUNNY   68  55  64 S20G25    29.68S
CLARKSDALE     SUNNY     70  57  64 CALM      29.68S
CORINTH        SUNNY     68  55  64 S10G17    29.70R
GREENWOOD      SUNNY     73  51  46 S16G25    29.70S
COLUMBUS       SUNNY     79  55  44 S14       29.73R
STARKVILLE     SUNNY     73  52  46 SW9       29.74S
GOLDEN TRIANGL SUNNY     73  52  46 SW12      29.70R


...SOUTHEAST MISSOURI...

CITY           SKY/WX    TMP DP  RH WIND       PRES   REMARKS
KENNETT        MOSUNNY   63  55  77 S14       29.63S
WEST PLAINS    SUNNY     62  49  62 S15       29.56R
POPLAR BLUFF   PTSUNNY   61  55  81 S9        29.60F
CAPE GIRARDEAU CLOUDY    60  51  72 S18       29.62S


...NORTHWEST ALABAMA...

CITY           SKY/WX    TMP DP  RH WIND       PRES   REMARKS
MUSCLE SHOALS  SUNNY     70  51  51 S10       29.74S


...MIDDLE TENNESSEE...

CITY           SKY/WX    TMP DP  RH WIND       PRES   REMARKS
NASHVILLE      MOCLDY    68  52  56 S14       29.73S
CLARKSVILLE    MOSUNNY   65  52  62 S12       29.68F
COLUMBIA       SUNNY     66  57  72 S10       29.71S


...WESTERN KENTUCKY...

CITY           SKY/WX    TMP DP  RH WIND       PRES   REMARKS
PADUCAH        CLOUDY    61  51  70 S9        29.65R
FORT CAMPBELL  MOSUNNY   65  53  66 S10       29.68F


...CENTRAL ARKANSAS...

CITY           SKY/WX    TMP DP  RH WIND       PRES   REMARKS
LITTLE ROCK    PTSUNNY   67  51  56 S9        29.62S


SKY/WX REPORTED AS FAIR MEANS FEW OR NO CLOUDS BELOW
12 THOUSAND FEET.





USA.gov is the U.S. government's official web portal to all federal, state and local government web resources and services.